AO-07 1 07530U 74089B 19191.00909130 -.00000020 00000-0 15481-3 0 9991 2 07530 101.7448 158.4528 0011871 307.8784 97.6042 12.53638886 43195 UO-11 1 14781U 84021B 19191.49237847 .00000033 00000-0 10204-4 0 9998 2 14781 97.6095 215.1790 0007070 243.5034 116.5455 14.83094428901997 LO-19 1 20442U 90005G 19191.80434069 -.00000008 00000-0 13431-4 0 9996 2 20442 98.6492 133.7685 0012963 84.6262 275.6401 14.32928399539545 HUBBLE 1 20580U 90037B 19190.91850640 .00000344 00000-0 99889-5 0 9996 2 20580 028.4702 071.5739 0002642 356.7283 128.5355 15.09242425404012 MET-2/21 1 22782U 93055A 19191.80103993 .00000071 00000-0 50824-4 0 9998 2 22782 82.5495 145.5300 0023573 114.6373 308.9203 13.83819165305928 AO-27 1 22825U 93061C 19190.90969964 -.00000017 00000-0 11347-4 0 9999 2 22825 098.9037 180.0316 0007442 301.5629 058.4825 14.30061869344718 IO-26 1 22826U 93061D 19190.90642400 -.00000008 00000-0 14682-4 0 9998 2 22826 098.8977 180.0170 0007867 288.7347 071.2980 14.30395595344938 FO-29 1 24278U 96046B 19190.92001374 -.00000032 00000-0 29975-5 0 9997 2 24278 98.5401 341.4530 0350321 184.7956 174.9796 13.53092694130678 NOAA-15 1 25338U 98030A 19191.51994012 .00000062 00000-0 44814-4 0 9996 2 25338 98.7455 212.7466 0010580 173.2746 186.8578 14.25920039100361 GO-32 1 25397U 98043D 19191.40658507 -.00000020 00000-0 10321-4 0 9990 2 25397 98.6893 131.2886 0001360 26.5774 333.5474 14.23667498 90964 ISS 1 25544U 98067A 19191.64362958 .00000242 00000-0 11957-4 0 9999 2 25544 51.6430 244.8938 0007211 126.3371 5.0810 15.50966263178893 NO-44 1 26931U 01043C 19191.73341121 -.00000046 00000-0 14344-4 0 9993 2 26931 67.0521 306.8015 0007003 277.4650 82.5655 14.30546515928125 SO-50 1 27607U 02058C 19190.89571941 -.00000033 00000-0 16342-4 0 9998 2 27607 64.5555 344.7671 0080641 252.4557 106.7723 14.75557203890164 CO-55 1 27844U 03031E 19190.89992822 .00000026 00000-0 31564-4 0 9992 2 27844 098.6831 198.7959 0009276 336.9771 023.0990 14.22184320831260 CO-57 1 27848U 03031J 19190.96848208 .00000025 00000-0 31125-4 0 9994 2 27848 098.6909 199.3681 0009377 348.6456 011.4508 14.21778848831136 RS-22 1 27939U 03042A 19191.80933804 .00000085 00000-0 23900-4 0 9996 2 27939 98.0438 327.1967 0012859 3.5787 356.5511 14.66789839843781 NOAA-18 1 28654U 05018A 19191.24206248 .00000042 00000-0 47585-4 0 9997 2 28654 99.0941 238.5333 0015306 115.9642 244.3108 14.12436675728568 CO-58 1 28895U 05043F 19191.11084378 .00000083 00000-0 24892-4 0 9997 2 28895 97.9620 333.1107 0015374 285.1384 74.8118 14.63673439730618 Falconsat-3 1 30776U 07006E 19191.52433685 .00001958 00000-0 55570-4 0 9992 2 30776 35.4356 311.3335 0003395 302.0399 57.9998 15.36253831684042 CO-65 1 32785U 08021C 19191.13242380 .00000163 00000-0 23248-4 0 9993 2 32785 97.5494 189.8358 0012836 184.8806 175.2289 14.88318357606871 AAUSAT2 1 32788U 08021F 19191.00454023 .00000417 00000-0 43322-4 0 9998 2 32788 97.4961 205.7932 0013185 123.8431 236.4047 14.94742979608101 DO-64 1 32789U 08021G 19190.93255408 .00000856 00000-0 61112-4 0 9990 2 32789 097.4630 239.9558 0013623 058.1952 302.0601 15.06989385610065 CO-66 1 32791U 08021J 19190.98058821 .00000200 00000-0 25670-4 0 9990 2 32791 97.5274 195.6866 0013809 160.5140 199.6610 14.90831527607282 RS-30 1 32953U 08025A 19191.45575612 .00000021 00000-0 75656-4 0 9999 2 32953 82.5017 131.2315 0020434 80.7142 279.6247 12.43090362505016 PRISM 1 33493U 09002B 19191.52444618 .00000765 00000-0 72476-4 0 9996 2 33493 98.1214 113.3078 0016541 109.2055 251.0957 14.96668228568416 NOAA-19 1 33591U 09005A 19191.50861909 .00000058 00000-0 57107-4 0 9991 2 33591 99.1801 183.1605 0013284 320.9208 39.1002 14.12363795536984 TISAT-1 1 36799U 10035E 19191.42436468 .00000295 00000-0 35859-4 0 9991 2 36799 98.1584 344.2999 0012663 21.3483 338.8259 14.91114490488002 JUGNU 1 37839U 11058B 19191.13743226 .00000306 00000-0 21354-4 0 9992 2 37839 19.9597 204.7296 0018652 203.0243 217.3249 14.12653576400291 SRMSAT 1 37841U 11058D 19190.59749288 .00000305 00000-0 22465-4 0 9991 2 37841 19.9717 265.2142 0012020 66.2313 79.5313 14.10635033399642 AO-71 1 37854U 11061E 19190.68188739 .00001255 00000-0 71613-4 0 9991 2 37854 101.6996 99.7153 0160884 3.5761 356.6561 15.06455202420158 HRBE 1 37855U 11061F 19190.66827106 .00001265 00000-0 70878-4 0 9991 2 37855 101.7128 97.0329 0173684 14.6849 345.9318 15.05459899419935 ALMASAT-1 1 38078U 12006B 19191.46602182 .00029379 42778-5 16046-3 0 9998 2 38078 69.4232 204.0096 0162001 228.5958 248.0045 15.63924436400891 HORYU-2 1 38340U 12025D 19190.93383224 .00000111 00000-0 24199-4 0 9994 2 38340 098.3274 230.1607 0012650 060.6451 299.6019 14.75726073373885 RS-40 1 38735U 12041C 19191.12585996 .00000019 00000-0 67889-4 0 9992 2 38735 82.4739 214.7206 0016866 184.5403 175.5515 12.42579237315218 BEESAT-3 1 39135U 13015F 19190.76602292 .00000568 00000-0 37975-4 0 9999 2 39135 64.8699 330.7529 0023989 318.1196 41.8094 15.17493337343441 BEESAT-2 1 39136U 13015G 19190.87689830 .00000596 00000-0 39978-4 0 9991 2 39136 064.8710 334.2809 0020233 299.0286 060.8812 15.16922540342992 ZACUBE-1 1 39417U 13066B 19191.52617920 .00000153 00000-0 25722-4 0 9994 2 39417 97.5617 203.8006 0057966 323.7468 35.9823 14.81122343304271 TRITON-1 1 39427U 13066M 19191.47404678 .00000197 00000-0 38968-4 0 9997 2 39427 97.6771 167.5069 0115382 95.6435 265.7942 14.67848302301530 GOMX-1 1 39430U 13066Q 19191.42774426 .00000110 00000-0 28929-4 0 9998 2 39430 97.7487 146.5506 0150869 185.2324 174.7303 14.59258582299772 LO-74 1 39440U 13066AA 19191.51447495 .00000160 00000-0 29208-4 0 9998 2 39440 97.6021 188.6628 0080704 15.2267 345.1345 14.75860347303194 AO-73 1 39444U 13066AE 19191.04204550 .00000177 00000-0 28232-4 0 9997 2 39444 97.5597 205.3102 0056971 319.0296 40.6644 14.81941923303090 SPROUT 1 39770U 14029E 19191.76502167 .00000322 00000-0 41795-4 0 9994 2 39770 97.8845 294.9137 0009757 20.3537 339.8047 14.87355200278110 DUCHIFAT-1 1 40021U 14033M 19190.75613097 .00000233 00000-0 29611-4 0 9997 2 40021 097.9236 115.4197 0012682 347.6550 012.4355 14.90638049274683 NANOSATCBR1 1 40024U 14033Q 19191.46564838 .00000309 00000-0 38094-4 0 9996 2 40024 97.9133 113.4993 0012012 349.2209 10.8748 14.89851981274688 EO-79 1 40025U 14033R 19190.73470947 .00000193 00000-0 26538-4 0 9994 2 40025 097.9056 110.3854 0012423 357.2946 002.8201 14.88949992273940 DTUSAT-2 1 40030U 14033W 19190.73651044 .00000134 00000-0 20470-4 0 9993 2 40030 97.8973 108.5125 0011759 353.3603 6.7456 14.88542002274386 EO-80 1 40032U 14033Y 19190.81010692 .00000138 00000-0 20910-4 0 9995 2 40032 097.8980 108.5869 0011727 353.8739 006.2332 14.88484700273861 ANTELSAT 1 40034U 14033AA 19190.68016521 .00000120 00000-0 25126-4 0 9994 2 40034 097.7586 056.9630 0059590 030.0618 330.3989 14.74108804271237 VELOX-1 1 40057U 14034E 19191.41329862 .00000201 00000-0 35686-4 0 9999 2 40057 98.2383 314.9723 0011474 158.3017 201.8683 14.77673818270977 DAURIA DX 1 1 40071U 14037C 19191.44099728 .00000015 00000-0 94020-5 0 9997 2 40071 98.4294 346.4368 0008970 149.3046 210.8699 14.81274479270477 UKUBE-1 1 40074U 14037F 19191.40793584 .00000169 00000-0 27460-4 0 9990 2 40074 98.4395 354.6011 0005335 128.0503 232.1202 14.84061524270871 HODOYOSHI-1 1 40299U 14070B 19191.47428241 .00000383 00000-0 19032-4 0 9992 2 40299 97.3485 270.7764 0012097 332.7654 225.7703 15.23380084259583 CHUBUSAT-1 1 40300U 14070C 19191.28022486 .00000398 00000-0 20336-4 0 9990 2 40300 97.3265 264.9164 0019980 344.0716 56.5093 15.22099995259303 QSAT-EOS 1 40301U 14070D 19191.46975988 .00000853 00000-0 35804-4 0 9997 2 40301 97.3259 268.2388 0024767 325.0365 90.5846 15.25956268259616 FIREBIRD FU3 1 40377U 15003B 19191.49249482 .00002809 00000-0 11328-3 0 9990 2 40377 99.1135 176.1910 0127418 18.4137 342.1642 15.18834862245237 FIREBIRD FU4 1 40378U 15003C 19191.54546449 .00002748 00000-0 11084-3 0 9991 2 40378 99.1138 176.3323 0127632 18.1191 342.4525 15.18841948245243 GRIFEX 1 40379U 15003D 19191.84808646 .00001814 00000-0 80492-4 0 9998 2 40379 99.1134 170.6269 0135982 35.7648 325.2593 15.15512255244948 NO-84 1 40654U 15025D 19191.22850175 .00009033 00000 0 12687-3 0 6621 2 40654 54.9886 74.5212 0137881 22.9497 337.7638 15.47299975115780 NO-83 1 40655U 15025E 19191.33138367 .00064749 12081-4 29568-3 0 8020 2 40655 54.9650 313.9729 0055158 91.9497 268.8098 15.81772272117145 DEORBITSAIL 1 40719U 15032E 19191.27091703 .00000268 00000-0 45428-4 0 9995 2 40719 97.9065 82.6557 0014981 234.1221 125.8598 14.76749471215444 NUDT-PHONESAT 1 40900U 15049B 19191.39651809 .00001313 00000-0 59034-4 0 9997 2 40900 97.4362 200.5175 0014432 106.0487 2.0746 15.22824734210961 XW-2A 1 40903U 15049E 19191.72323771 .00001352 00000-0 33766-4 0 9998 2 40903 97.3360 234.6103 0015237 69.1217 70.5412 15.41892856213643 XW-2C 1 40906U 15049H 19191.76700231 .00000373 00000-0 23027-4 0 9996 2 40906 97.4672 193.4781 0016294 119.4961 236.7548 15.15684414210335 XW-2D 1 40907U 15049J 19191.76176603 .00000189 00000-0 13342-4 0 9991 2 40907 97.4653 193.1516 0015522 116.3401 348.2971 15.15871117210355 LILACSAT-2 1 40908U 15049K 19191.40986921 .00000420 00000-0 26776-4 0 9998 2 40908 97.4785 191.6355 0017156 124.2389 342.5276 15.13808620210097 XW-2E 1 40909U 15049L 19191.40164029 .00000803 00000-0 42981-4 0 9997 2 40909 97.4586 195.6307 0015280 113.7216 354.1231 15.17797618210487 XW-2F 1 40910U 15049M 19191.51537259 .00000431 00000-0 24912-4 0 9991 2 40910 97.4617 194.9225 0016362 111.4215 49.3721 15.17308745210320 XW-2B 1 40911U 15049N 19191.40030545 .00000589 00000-0 34257-4 0 9993 2 40911 97.4677 193.4485 0015461 118.2269 351.5804 15.15804225210199 DCBB 1 40912U 15049P 19191.29686657 .00000563 00000-0 29588-4 0 9995 2 40912 97.4493 198.3696 0016582 96.4944 321.4499 15.19622061210596 TW-1C 1 40926U 15051B 19191.83447935 .00008481 00000-0 12310-3 0 9998 2 40926 97.1333 237.9821 0006149 294.1201 127.7036 15.56045256213607 TW-1A 1 40928U 15051D 19191.44744674 .00002157 00000-0 54469-4 0 9993 2 40928 97.1436 222.2697 0011068 3.9853 103.3217 15.40857953212525 IO-86 1 40931U 15052B 19190.82778310 .00000604 00000-0 -50428-5 0 9991 2 40931 5.9983 265.8246 0013329 92.9756 267.2386 14.76608772204392 LQSat 1 40958U 15057A 19191.16430837 -.00000038 00000-0 18098-5 0 9990 2 40958 97.8977 259.7805 0018482 168.1734 191.9912 14.73083113201965 AO-85 1 40967U 15058D 19191.34138286 -.00000029 00000 0 15746-4 0 7414 2 40967 64.7774 92.6315 0197826 195.9242 163.5588 14.75959187110930 ATHENOXAT-1 1 41168U 15077C 19190.99171634 .00001494 00000-0 43476-4 0 9996 2 41168 14.9894 59.9720 0011507 28.9907 331.1052 15.13651328197218 ChubuSat-2 1 41338U 16012B 19191.51604182 .00000245 00000-0 12311-4 0 9990 2 41338 31.0042 6.0737 0013944 318.7914 41.1669 15.00156921186190 ChubuSat-3 1 41339U 16012C 19191.74910139 .00000219 00000-0 10274-4 0 9995 2 41339 31.0118 2.6595 0013816 329.1001 30.8822 15.00332317186225 Horyu-4 1 41340U 16012D 19190.84796788 .00000330 00000-0 18363-4 0 9990 2 41340 31.0061 359.5928 0014129 337.9984 22.0045 15.01272788186195 OUFTI-1 1 41458U 16025C 19190.78605394 .00001034 00000-0 57080-4 0 9990 2 41458 98.1024 278.7015 0165058 286.3041 72.0086 15.05835357175746 e-st@r-II 1 41459U 16025D 19191.47215098 -.00000335 00000-0 -12177-4 0 9999 2 41459 98.1011 279.0724 0166294 285.3200 72.9741 15.05467799175820 AAUSAT4 1 41460U 16025E 19191.48712023 .00000451 00000-0 27240-4 0 9996 2 41460 98.0936 280.3824 0156108 277.7339 80.6174 15.07361010175955 LO-87 1 41557U 16033B 19191.53488205 .00001045 00000-0 41852-4 0 9995 2 41557 97.4182 278.9080 0012832 214.8965 145.1434 15.27239370173428 NuSat2 1 41558U 16033C 19191.80391903 .00001010 00000-0 38345-4 0 9999 2 41558 97.4209 280.2931 0011877 214.2307 145.8168 15.29147001173514 Lapan A3 1 41603U 16040E 19191.77784420 -.00000008 00000-0 27728-5 0 9995 2 41603 97.3581 249.9445 0012688 328.3234 170.7240 15.19721341169096 Swayam 1 41607U 16040J 19191.14593829 .00001002 00000-0 45091-4 0 9997 2 41607 97.3643 252.7928 0012231 322.0012 38.0362 15.23328319169146 Pratham 1 41783U 16059A 19191.41693376 .00000031 00000-0 15363-4 0 9990 2 41783 98.0660 250.5179 0032537 317.4685 42.3997 14.62998605148723 AlSat 1N 1 41789U 16059G 19191.52375150 .00000062 00000-0 20838-4 0 9992 2 41789 98.0684 252.6628 0027290 306.7419 53.1272 14.64248632148842 ScatSat 1 41790U 16059H 19191.44344914 .00000004 00000-0 12002-4 0 9999 2 41790 98.2077 235.9988 0004031 260.8410 99.2329 14.50821719147485 TY-1 1 41844U 16066D 19191.56468416 .00000483 00000-0 22629-4 0 9991 2 41844 97.4046 198.6756 0016691 109.4325 7.9159 15.24296969148021 Pegasus-1 1 41846U 16066F 19190.69032275 .00000191 00000-0 39157-4 0 9996 2 41846 098.7097 231.2250 0367751 175.8039 184.6381 14.37582616139571 CAS-2T 1 41847U 16066G 19191.73646812 .00000000 00000-0 10316-4 0 9996 2 41847 98.7039 232.8172 0366241 169.1936 191.7399 14.37992715140163 EO-88 1 42017U 17008BX 19191.14635814 .00001075 00000-0 45181-4 0 9999 2 42017 97.4021 258.0190 0007982 93.6885 266.5266 15.25560313133190 NJUST-1 1 42722U 98067MB 19191.38440105 .00502724 14533-3 44277-3 0 9999 2 42722 51.6202 151.5016 0001936 21.8015 115.1245 16.12409677121927 nSIGHT1 1 42726U 98067MF 19191.52007860 .00023021 00000-0 17640-3 0 9999 2 42726 51.6349 197.0041 0003518 271.2088 88.8507 15.72000691121256 Aoxiang-1 1 42735U 98067MQ 19177.55530794 .07215990 12478-4 53264-3 0 9996 2 42735 51.6164 219.6428 0005776 333.1578 33.8960 16.39815471120909 CAS-4B 1 42759U 17034B 19191.24793402 .00000038 00000-0 15911-4 0 9996 2 42759 43.0186 112.3865 0011167 20.0665 110.9272 15.09593949114093 CAS-4A 1 42761U 17034D 19191.27740382 -.00000061 00000-0 98075-5 0 9991 2 42761 43.0188 111.7476 0011553 21.3378 116.5834 15.09670455114097 UCLSat 1 42765U 17036A 19191.15664326 .00000847 00000-0 39192-4 0 9992 2 42765 97.3496 248.7072 0012434 147.2779 212.9231 15.22765661113731 NIUSat 1 42766U 17036B 19191.14719349 .00000700 00000-0 34405-4 0 9998 2 42766 97.3492 247.0687 0016823 140.6839 219.5622 15.21125408113490 LituanicaSAT 2 1 42768U 17036D 19191.39759212 .00001735 00000-0 76899-4 0 9992 2 42768 97.3531 248.5560 0016341 139.1147 221.1319 15.22836294113611 Aalto 1 1 42775U 17036L 19191.63090149 .00000647 00000-0 31849-4 0 9991 2 42775 97.3480 247.8699 0015161 138.4290 221.8102 15.21354309113547 URSA MAIOR 1 42776U 17036M 19191.39245423 .00000715 00000-0 34765-4 0 9998 2 42776 97.3489 247.7916 0014981 139.1392 221.0970 15.21487594113513 Max Valier Sat 1 42778U 17036P 19190.76406294 .00000674 00000-0 32463-4 0 9992 2 42778 97.3530 247.9656 0013464 144.1497 216.0646 15.22034630113448 Pegasus 1 42784U 17036V 19191.38171730 .00000944 00000-0 43652-4 0 9994 2 42784 97.3499 248.7416 0013002 147.4609 212.7431 15.22514368113560 NUDATSat 1 42787U 17036Y 19191.16888508 .00001038 00000-0 46410-4 0 9991 2 42787 97.3530 249.2449 0010860 144.7127 215.4831 15.23482344113412 SUCHAI 1 1 42788U 17036Z 19190.72587291 .00000993 00000-0 45190-4 0 9991 2 42788 97.3505 248.4127 0012540 148.5367 211.6622 15.22931024113558 SKCUBE 1 42789U 17036AA 19190.94014454 .00000918 00000-0 42158-4 0 9990 2 42789 097.3502 248.5616 0012403 147.9231 212.2763 15.22830137113502 VZLUSAT 1 1 42790U 17036AB 19190.69595386 .00001230 00000-0 54439-4 0 9995 2 42790 097.3517 248.7848 0012013 147.5910 212.6068 15.23482412113496 VENTA 1 1 42791U 17036AC 19190.91402202 .00000898 00000-0 41289-4 0 9993 2 42791 097.3500 248.5873 0012048 148.2435 211.9530 15.22842770113495 Robusta 1B 1 42792U 17036AD 19191.19721352 .00001118 00000-0 50429-4 0 9997 2 42792 97.3502 248.9658 0012000 147.4499 212.7480 15.22998718113567 D-SAT 1 42794U 17036AF 19191.08061095 .00000245 00000-0 26399-4 0 9997 2 42794 97.5378 234.8407 0128032 70.6761 290.8251 14.91103961111520 TechnoSat 1 42829U 17042E 19191.69157685 .00000046 00000-0 10084-4 0 9994 2 42829 97.5619 83.6564 0014040 353.5205 6.5830 14.90978786108211 TOMSK-TPU 120 1 42910U 98067MZ 19191.47206236 .00047825 00000-0 19188-3 0 9993 2 42910 51.6318 175.6317 0000804 313.8878 189.1874 15.85980181108487 TANYUSHA 1 1 42911U 98067NA 19191.49301132 .00333080 61979-4 45849-3 0 9997 2 42911 51.6180 161.2317 0002425 60.5252 39.4838 16.05565600108653 TANYUSHA 2 1 42912U 98067NB 19191.48817306 .00091250 14398-4 25520-3 0 9999 2 42912 51.6372 169.1018 0002977 7.1856 88.6530 15.93626562108578 TNS 0-2 1 42914U 98067ND 19191.41213778 .00077533 00000-0 29578-3 0 9993 2 42914 51.6320 176.3916 0001188 333.5779 26.5165 15.86822976108465 QIKCOM-1 1 42983U 98067NF 19191.37130922 .00002516 00000-0 38206-4 0 9991 2 42983 51.6387 231.3850 0003726 200.7604 159.3238 15.58946658 96729 AO-91 1 43017U 17073E 19190.71336319 .00000471 00000-0 41565-4 0 9993 2 43017 097.7227 111.2513 0259708 089.9627 273.1341 14.78559314088360 EcAMSat 1 43019U 98067NG 19191.30666707 .00005058 00000-0 64140-4 0 9990 2 43019 51.6396 226.4964 0004215 182.1784 177.9192 15.61411720179107 PICSAT 1 43132U 18004X 19190.85148840 .00000942 00000-0 42324-4 0 9998 2 43132 097.4874 258.6277 0009974 170.8049 189.3372 15.23596109082722 AO-92 1 43137U 18004AC 19191.17298577 .00000703 00000-0 32469-4 0 9996 2 43137 97.4865 258.9271 0009496 171.0851 189.0557 15.23482204 82763 TianYi 2 1 43155U 18008A 19191.52363726 .00000751 00000-0 48481-4 0 9992 2 43155 97.4862 263.6057 0016176 247.7835 169.2969 15.11158713 81129 Zhou Enlai 1 43156U 18008B 19191.45232711 .00000337 00000-0 24198-4 0 9993 2 43156 97.4900 263.4276 0013302 244.4558 210.2074 15.10658935 81087 TianYi 6 1 43158U 18008D 19191.16539604 .00000036 00000-0 60530-5 0 9991 2 43158 97.4848 262.6103 0012438 244.9913 173.5346 15.10247858 81002 S-Net G 1 43186U 18014G 19191.75527986 .00000565 00000-0 54570-4 0 9997 2 43186 97.7083 99.8885 0009523 295.4625 64.5611 14.96649965 78431 S-Net H 1 43187U 18014H 19190.81910134 .00000443 00000-0 43957-4 0 9997 2 43187 97.7080 98.9539 0009607 298.7640 61.2616 14.96648821 78294 S-Net J 1 43188U 18014J 19190.81889987 .00000438 00000-0 43439-4 0 9998 2 43188 97.7083 98.9712 0009616 298.8502 61.1754 14.96648393 78295 S-Net K 1 43189U 18014K 19190.81923346 .00000452 00000-0 44718-4 0 9994 2 43189 097.7079 098.9514 0009594 298.7532 061.2725 14.96648312076847 FMN 1 1 43192U 18015A 19191.58749254 .00001317 00000-0 56668-4 0 9996 2 43192 97.4020 319.0576 0015235 212.8446 147.1846 15.24307058 79650 Shaonian Xing 1 43199U 18015H 19191.19740326 .00000901 00000-0 39110-4 0 9992 2 43199 97.3801 317.7530 0015879 226.0480 133.9449 15.24808901 79641 1KUNS-PF 1 43466U 98067NP 19191.54072581 .00020405 00000-0 19450-3 0 9999 2 43466 51.6359 223.4790 0000415 10.4303 349.6702 15.66766615 66341 UBAKUSAT 1 43467U 98067NQ 19191.53487535 .00011365 00000-0 12759-3 0 9998 2 43467 51.6361 227.9426 0001936 138.1384 221.9759 15.63161831 66290 Irazu 1 43468U 98067NR 19191.55267699 .00030829 00000-0 25661-3 0 9990 2 43468 51.6349 219.7808 0001022 3.8518 356.2487 15.69838458166386 EnduroSat One 1 43551U 98067NZ 19190.59448328 .00010975 00000-0 12273-3 0 9991 2 43551 051.6365 235.1617 0004842 228.4828 131.5752 15.63301160056341 EQUISat 1 43552U 98067PA 19191.35910892 .00011262 00000-0 13209-3 0 9997 2 43552 51.6379 232.7904 0005272 228.4212 131.6331 15.62028366 56408 UiTMSat 1 1 43589U 98067PD 19191.48859086 .00013688 00000-0 15833-3 0 9997 2 43589 51.6353 232.8498 0004606 239.8214 120.2324 15.62174774 52156 Maya 1 1 43590U 98067PE 19190.39592485 .00010888 00000-0 12725-3 0 9991 2 43590 51.6354 238.3069 0004777 235.2192 124.8353 15.62165117 51914 Bhutan 1 1 43591U 98067PF 19191.15345916 .00010380 00000-0 12126-3 0 9994 2 43591 51.6366 234.3878 0004878 239.3022 120.7491 15.62237842 52038 SiriusSat 1 1 43595U 98067PG 19191.15076593 .00009620 00000-0 11645-3 0 9990 2 43595 51.6356 235.8472 0002747 187.4402 172.6552 15.61411755 51191 SiriusSat 2 1 43596U 98067PH 19191.50336648 .00012463 00000-0 14985-3 0 9999 2 43596 51.6365 234.4883 0003247 190.1770 169.9159 15.61266548 51244 Tanusha-3 1 43597U 98067PJ 19191.15950819 .00012663 00000-0 14310-3 0 9997 2 43597 51.6348 234.3792 0002537 210.6547 149.4299 15.62867273 51213 SurfSat 1 43614U 18070B 19191.53077278 .00002102 00000-0 57082-4 0 9995 2 43614 93.0225 12.6761 0014187 213.8927 146.1421 15.37588102 45768 CP-7 DAVE 1 43615U 18070C 19191.73288713 .00001898 00000-0 51699-4 0 9995 2 43615 93.0225 12.7603 0014405 212.1373 147.9004 15.37504845 45796 ELFIN-B 1 43616U 18070D 19191.73177949 .00003338 00000-0 88874-4 0 9990 2 43616 93.0195 12.6721 0015100 216.3693 143.6536 15.38143097 45801 ELFIN-A 1 43617U 18070E 19191.46480077 .00003498 00000-0 93042-4 0 9990 2 43617 93.0251 12.7941 0014295 213.7888 146.2456 15.38190093 45764 STARS-Me Mother 1 43640U 98067PQ 19191.35367631 .00007356 00000-0 99913-4 0 9998 2 43640 51.6368 238.7294 0004975 174.0540 186.0512 15.58760385 43108 CubeBel 1 1 43666U 18083E 19191.84720286 .00000670 00000-0 36627-4 0 9994 2 43666 97.5182 216.1741 0016720 109.8378 15.2354 15.17606763 38646 Changshagaoxin 1 43669U 18083H 19191.55373625 .00000606 00000-0 34229-4 0 9991 2 43669 97.5051 215.1236 0012677 103.2980 256.9667 15.16807616 38545 Ten-Koh 1 43677U 18084G 19191.84835116 .00000112 00000-0 17377-4 0 9998 2 43677 97.8540 305.4367 0015454 204.1602 155.8892 14.90174340 37915 PO-101 1 43678U 18084H 19191.81101249 .00000070 00000-0 12632-4 0 9991 2 43678 97.8532 305.9641 0009000 224.9327 135.1185 14.91557982 37948 IRVINE 01 1 43693U 18088D 19190.79399498 .00001834 00000-0 79469-4 0 9993 2 43693 85.0364 304.1784 0020672 113.2846 247.0575 15.21436928 36574 QO-100 1 43700U 18090A 19191.78636066 .00000132 00000-0 00000 0 0 9990 2 43700 0.0406 94.4687 0001223 16.2796 126.5148 1.00273545 2515 Reaktor Hello World 1 43743U 18096AA 19191.53231613 .00000649 00000-0 27529-4 0 9998 2 43743 97.4589 261.5061 0016617 257.7001 211.4184 15.26635929 34061 MinXSS-2 1 43758U 18099A 19191.16557023 .00000177 00000-0 21225-4 0 9995 2 43758 97.7445 262.9647 0014102 254.2422 105.7244 14.95419878 32644 AO-95 1 43770U 18099N 19191.19093019 .00000035 00000-0 85654-5 0 9992 2 43770 97.7443 262.7852 0013178 261.1108 98.8621 14.94772578 32630 RANGE-B 1 43772U 18099Q 19191.44613717 -.00000093 00000-0 -32604-5 0 9998 2 43772 97.7498 263.2065 0012851 246.1138 113.8736 14.94882548 32664 RANGE-A 1 43773U 18099R 19190.78152065 -.00000266 00000-0 -19114-4 0 9991 2 43773 97.7391 262.2588 0012210 248.7482 111.2435 14.94807739 32561 MOVE-II 1 43780U 18099Y 19191.15378225 .00000675 00000-0 66850-4 0 9990 2 43780 97.7435 262.7921 0012027 258.6410 101.3460 14.95069517 32610 SNUSat 2 1 43782U 18099AA 19191.14853628 .00000584 00000-0 58576-4 0 9991 2 43782 97.7441 262.8290 0011397 246.4679 113.5344 14.95058509 32626 SnugLite 1 43784U 18099AC 19191.20436760 .00000480 00000-0 49005-4 0 9996 2 43784 97.7405 262.8115 0013700 255.7012 104.2687 14.95138084 32644 ITASat 1 1 43786U 18099AE 19191.20236803 .00000373 00000-0 39235-4 0 9999 2 43786 97.7457 262.9652 0013822 254.5711 105.3983 14.95142533 32643 EAGLET 1 1 43790U 18099AJ 19191.14694529 .00000565 00000-0 56219-4 0 9994 2 43790 97.7450 263.0121 0011924 260.2353 99.7521 14.95518741 32339 ESEO 1 43792U 18099AL 19191.27843615 .00000495 00000-0 49854-4 0 9991 2 43792 97.7429 263.0967 0011805 256.3366 103.6540 14.95510063 32417 CSIM 1 43793U 18099AM 19190.79405313 .00000280 00000-0 30346-4 0 9995 2 43793 097.7390 262.5206 0011697 255.0851 104.9075 14.95702726032314 Astrocast 0.1 1 43798U 18099AS 19191.38059457 -.00000393 00000-0 -30033-4 0 9990 2 43798 97.7437 263.2828 0011257 237.7847 122.2283 14.95736580 32660 JO-97 1 43803U 18099AX 19191.18524051 -.00000108 00000-0 -45654-5 0 9992 2 43803 97.7416 262.8650 0013807 255.8495 104.1192 14.95275375 32630 Suomi 100 1 43804U 18099AY 19191.45244293 -.00000137 00000-0 -71832-5 0 9999 2 43804 97.7414 263.1268 0013891 254.9547 105.0136 14.95274940 32689 Al Farabi 2 1 43805U 18099AZ 19191.78158986 -.00000138 00000-0 -72125-5 0 9996 2 43805 97.7418 263.4677 0013904 253.9397 106.0293 14.95334358 32739 PWSat 2 1 43814U 18099BJ 19191.77600729 .00009719 00000-0 78505-3 0 9990 2 43814 97.7834 264.6648 0006464 214.7652 145.3154 15.00020150 32162 CHOMPTT 1 43855U 18104G 19191.58576036 .00000520 00000-0 20680-4 0 9997 2 43855 85.0374 41.9660 0015639 229.8830 130.1046 15.22397532 31352 ISAT 1 43879U 18111D 19191.53087085 -.00000076 00000-0 -16372-5 0 9999 2 43879 97.7167 99.2223 0012316 316.5736 43.4515 14.95995592 27202 UWE-4 1 43880U 18111E 19191.16469787 .00000691 00000-0 66314-4 0 9994 2 43880 97.7182 98.9582 0011217 320.1775 39.8623 14.96240106 27156 Sparrow 1 43881U 18111F 19191.49315500 .00000748 00000-0 71324-4 0 9994 2 43881 97.7185 99.3053 0011292 317.2547 42.7795 14.96286766 27206 Lume 1 1 43908U 18111AJ 19191.33149418 .00000786 00000-0 34851-4 0 9996 2 43908 97.2887 95.9935 0019913 276.0652 83.8317 15.24359117 29748 FO-98 1 43933U 19003B 19191.84507993 .00000412 00000-0 21152-4 0 9993 2 43933 97.2800 248.6927 0018440 13.0163 75.9350 15.21649205 26427 FO-99 1 43937U 19003F 19191.42892569 .00000693 00000-0 31661-4 0 9994 2 43937 97.2749 248.6567 0024422 359.4979 56.0218 15.23598543 26391 Delphini 1 1 44030U 98067PW 19190.59793301 .00007034 00000-0 10286-3 0 9992 2 44030 51.6375 246.4359 0004066 225.6953 134.3706 15.56830594 24805 MYSat 1 1 44045U 18092F 19191.46573929 .00001560 00000-0 56347-4 0 9994 2 44045 51.6423 265.4467 0012469 160.9692 199.1758 15.34998904 22588 AstroCast 0.2 1 44083U 19018F 19191.77430113 .00000416 00000-0 21674-4 0 9990 2 44083 97.4672 251.5844 0012427 294.3118 65.6819 15.21391046 15271 AISTechSat 3 1 44103U 19018AB 19191.75920133 .00000593 00000-0 28518-4 0 9997 2 44103 97.4551 251.5783 0012334 315.0671 44.9566 15.22646282 15279 AISat 1 1 44104U 19018AC 19191.76831437 .00000566 00000-0 20996-4 0 9999 2 44104 97.5082 253.4529 0058708 350.2070 9.8021 15.30489273 15380 OBJECT A 1 44339U 19036A 19191.85102920 .00000331 00000-0 28913-4 0 9994 2 44339 24.0011 106.8939 0011013 9.2426 350.8308 14.52653079 2256 OBJECT D 1 44342U 19036D 19190.81710704 .00000138 00000-0 -17349-4 0 9995 2 44342 23.9982 113.3486 0012036 352.3751 7.6604 14.53013147 2101 OBJECT H 1 44346U 19036H 19190.86855953 .00004512 00000-0 67484-4 0 9994 2 44346 28.5258 106.3061 0392708 259.7219 95.8888 14.95908477 2185 OBJECT J 1 44347U 19036J 19190.93048228 .00012572 00000-0 19969-3 0 9991 2 44347 028.5336 105.8418 0389802 260.3457 095.2914 14.96526593002197 OBJECT K 1 44348U 19036K 19191.86348005 .00004187 00000-0 61380-4 0 9999 2 44348 28.5220 99.7497 0391250 269.9802 85.5964 14.96459575 2335 LightSail-2 1 44420U 19036AC 19189.19929602 .00000238 00000-0 66072-5 0 9998 2 44420 24.0039 123.5944 0010951 339.2037 161.8097 14.52524232 18 /EX
